Location: Caltech
(34.1382°N, 118.1253°W)
Time: 17:19:48
(UTC-07:00)

ADEOS II - Visible Passes

Search period start: 25 September 2017 00:00
Search period end: 05 October 2017 00:00
Orbit: 799 x 802 km, 98.4° (Epoch: 25 September)

Date Brightness Start Highest point End Pass type
(mag) Time Alt. Az. Time Alt. Az. Time Alt. Az.
25 Sep 2.6 04:07:53 10° NNE 04:12:47 56° E 04:12:47 56° E visible
25 Sep 3.7 05:49:19 10° NNW 05:52:15 15° WNW 05:53:44 14° W visible
26 Sep 3.7 03:41:56 10° NE 03:45:56 30° E 03:45:56 30° E visible
26 Sep 3.0 05:21:46 10° NNW 05:26:07 27° WNW 05:26:53 26° W visible
27 Sep 4.6 03:16:38 10° NE 03:19:05 16° E 03:19:05 16° E visible
27 Sep 2.3 04:54:50 10° N 04:59:53 48° WNW 05:00:02 48° WNW visible
28 Sep 2.0 04:28:15 10° NNE 04:33:10 78° N 04:33:10 78° N visible
29 Sep 3.0 04:02:00 10° NNE 04:06:18 46° ENE 04:06:18 46° ENE visible
29 Sep 3.5 05:43:03 10° NNW 05:46:22 17° WNW 05:47:15 17° WNW visible
30 Sep 4.0 03:36:09 10° NE 03:39:27 25° ENE 03:39:27 25° ENE visible
30 Sep 2.8 05:15:41 10° N 05:20:13 30° WNW 05:20:24 30° WNW visible
01 Oct 4.8 03:11:06 10° ENE 03:12:35 13° ENE 03:12:35 13° ENE visible
01 Oct 2.2 04:48:50 10° N 04:53:32 53° NW 04:53:32 53° NW visible
02 Oct 2.4 04:22:19 10° NNE 04:26:40 61° NNE 04:26:40 61° NNE visible
02 Oct 3.9 06:05:33 10° NW 06:06:34 11° WNW 06:07:34 10° WNW visible
03 Oct 3.4 03:56:08 10° NNE 03:59:48 36° ENE 03:59:48 36° ENE visible
03 Oct 3.4 05:36:50 10° NNW 05:40:30 19° WNW 05:40:45 19° WNW visible
04 Oct 4.3 03:30:24 10° NE 03:32:56 21° ENE 03:32:56 21° ENE visible
04 Oct 2.8 05:09:37 10° N 05:13:53 34° WNW 05:13:53 34° WNW visible
